| time (UTC) | temp F | wind direction | speed MPH | gust MPH | rain 1hr in | rain 24hr in | rain mn in | humidity % | barometer mb |
| 20260906185453 | 79 | 338 | 7.0 | 8.0 | 0.00 | 0.00 | 0.00 | 78 | 1017.2 |
| 20260906184954 | 80 | 289 | 6.0 | 10.0 | 0.00 | 0.00 | 0.00 | 76 | 1017.2 |
| 20260906184453 | 80 | 301 | 7.0 | 10.0 | 0.00 | 0.00 | 0.00 | 76 | 1017.4 |
| 20260906183953 | 80 | 325 | 3.0 | 6.0 | 0.00 | 0.00 | 0.00 | 75 | 1017.1 |
| 20260906183454 | 80 | 318 | 5.0 | 6.0 | 0.00 | 0.00 | 0.00 | 75 | 1017.0 |
| 20260906182954 | 80 | 333 | 3.0 | 6.0 | 0.00 | 0.00 | 0.00 | 74 | 1016.7 |
| 20260906182454 | 81 | 321 | 5.0 | 6.0 | 0.00 | 0.00 | 0.00 | 74 | 1016.6 |
| 20260906181953 | 81 | 336 | 2.0 | 2.0 | 0.00 | 0.00 | 0.00 | 74 | 1016.6 |
| 20260906181454 | 81 | 262 | 1.0 | 2.0 | 0.00 | 0.00 | 0.00 | 74 | 1016.4 |
| 20260906180953 | 80 | 347 | 3.0 | 5.0 | 0.00 | 0.00 | 0.00 | 75 | 1016.4 |
| 20260906180453 | 80 | 322 | 3.0 | 5.0 | 0.00 | 0.00 | 0.00 | 75 | 1016.4 |
| 20260906175954 | 80 | 311 | 2.0 | 6.0 | 0.00 | 0.00 | 0.00 | 75 | 1016.4 |
| 20260906175454 | 80 | 307 | 5.0 | 7.0 | 0.00 | 0.00 | 0.00 | 76 | 1016.3 |
| 20260906174953 | 80 | 338 | 3.0 | 5.0 | 0.00 | 0.00 | 0.00 | 78 | 1016.4 |
| 20260906174453 | 80 | 296 | 2.0 | 3.0 | 0.00 | 0.00 | 0.00 | 78 | 1016.5 |
| 20260906173954 | 80 | 280 | 6.0 | 8.0 | 0.00 | 0.00 | 0.00 | 78 | 1016.5 |
| 20260906173454 | 80 | 280 | 7.0 | 10.0 | 0.00 | 0.00 | 0.00 | 78 | 1016.3 |
| 20260906172953 | 80 | 286 | 3.0 | 8.0 | 0.00 | 0.00 | 0.00 | 79 | 1016.3 |
| 20260906172453 | 80 | 263 | 7.0 | 12.0 | 0.00 | 0.00 | 0.00 | 78 | 1016.5 |
| 20260906171954 | 80 | 268 | 9.0 | 12.0 | 0.00 | 0.00 | 0.00 | 77 | 1016.4 |
| 20260906171454 | 80 | 278 | 6.0 | 9.0 | 0.00 | 0.00 | 0.00 | 77 | 1016.4 |
| 20260906170954 | 80 | 267 | 6.0 | 8.0 | 0.00 | 0.00 | 0.00 | 78 | 1016.4 |
| 20260906170453 | 80 | 252 | 3.0 | 3.0 | 0.00 | 0.00 | 0.00 | 78 | 1016.5 |
| 20260906165955 | 80 | 234 | 5.0 | 8.0 | 0.00 | 0.00 | 0.00 | 78 | 1016.6 |
| 20260906165454 | 80 | 259 | 6.0 | 7.0 | 0.00 | 0.00 | 0.00 | 78 | 1016.9 |
| 20260906164953 | 80 | 176 | 3.0 | 8.0 | 0.00 | 0.01 | 0.00 | 78 | 1016.9 |
| 20260906164453 | 80 | 210 | 6.0 | 7.0 | 0.00 | 0.01 | 0.00 | 78 | 1016.7 |
| 20260906163955 | 80 | 215 | 2.0 | 7.0 | 0.00 | 0.02 | 0.00 | 78 | 1016.5 |
| 20260906163454 | 80 | 243 | 2.0 | 5.0 | 0.00 | 0.03 | 0.00 | 78 | 1016.4 |
| 20260906162953 | 80 | 246 | 1.0 | 5.0 | 0.00 | 0.03 | 0.00 | 78 | 1016.4 |
| 20260906162455 | 80 | 188 | 2.0 | 5.0 | 0.00 | 0.03 | 0.00 | 78 | 1016.4 |
| 20260906161954 | 80 | 223 | 2.0 | 5.0 | 0.00 | 0.03 | 0.00 | 79 | 1016.5 |
| 20260906161454 | 80 | 195 | 5.0 | 6.0 | 0.00 | 0.03 | 0.00 | 79 | 1016.5 |
| 20260906160954 | 80 | 245 | 3.0 | 6.0 | 0.00 | 0.03 | 0.00 | 79 | 1016.4 |
| 20260906160453 | 80 | 170 | 3.0 | 5.0 | 0.00 | 0.03 | 0.00 | 80 | 1016.3 |
| 20260906155953 | 80 | 198 | 3.0 | 7.0 | 0.00 | 0.03 | 0.00 | 80 | 1016.2 |
| 20260906155736 | 79 | 216 | 6.0 | 8.0 | 0.00 | 0.03 | 0.00 | 80 | 1016.1 |
| 20260906155454 | 79 | 180 | 2.0 | 6.0 | 0.00 | 0.03 | 0.00 | 81 | 1016.1 |
| 20260906154953 | 79 | 201 | 7.0 | 15.0 | 0.00 | 0.03 | 0.00 | 80 | 1016.0 |
| 20260906154453 | 79 | 200 | 8.0 | 9.0 | 0.00 | 0.03 | 0.00 | 80 | 1016.0 |
| 20260906153955 | 79 | 187 | 3.0 | 6.0 | 0.00 | 0.03 | 0.00 | 80 | 1016.0 |
| 20260906153454 | 79 | 181 | 7.0 | 12.0 | 0.00 | 0.03 | 0.00 | 80 | 1016.1 |
| 20260906152954 | 79 | 181 | 3.0 | 8.0 | 0.00 | 0.03 | 0.00 | 81 | 1016.1 |
| 20260906152453 | 79 | 166 | 1.0 | 3.0 | 0.00 | 0.03 | 0.00 | 80 | 1016.0 |
| 20260906151954 | 79 | 196 | 3.0 | 7.0 | 0.00 | 0.03 | 0.00 | 81 | 1016.0 |
| 20260906151454 | 79 | 174 | 6.0 | 10.0 | 0.00 | 0.03 | 0.00 | 80 | 1015.9 |
| 20260906150953 | 79 | 188 | 3.0 | 3.0 | 0.00 | 0.03 | 0.00 | 80 | 1016.0 |
| 20260906150455 | 79 | 195 | 0.0 | 0.0 | 0.00 | 0.03 | 0.00 | 81 | 1016.0 |
| 20260906145954 | 78 | 161 | 2.0 | 10.0 | 0.00 | 0.03 | 0.00 | 81 | 1016.0 |
| 20260906145453 | 78 | 136 | 3.0 | 5.0 | 0.00 | 0.03 | 0.00 | 82 | 1016.0 |
| 20260906144954 | 78 | 164 | 2.0 | 6.0 | 0.00 | 0.03 | 0.00 | 82 | 1016.1 |
| 20260906144453 | 78 | 221 | 5.0 | 7.0 | 0.00 | 0.03 | 0.00 | 82 | 1016.2 |
| 20260906143953 | 78 | 250 | 8.0 | 13.0 | 0.00 | 0.03 | 0.00 | 82 | 1016.5 |
| 20260906143454 | 78 | 230 | 3.0 | 3.0 | 0.00 | 0.03 | 0.00 | 83 | 1015.9 |
| 20260906142954 | 78 | 193 | 5.0 | 7.0 | 0.00 | 0.03 | 0.00 | 83 | 1015.8 |
| 20260906142454 | 78 | 152 | 5.0 | 8.0 | 0.00 | 0.03 | 0.00 | 84 | 1015.8 |
| 20260906141953 | 78 | 132 | 5.0 | 6.0 | 0.00 | 0.03 | 0.00 | 85 | 1015.7 |
| 20260906141736 | 78 | 174 | 8.0 | 10.0 | 0.00 | 0.03 | 0.00 | 84 | 1015.7 |
| 20260906141454 | 77 | 151 | 6.0 | 14.0 | 0.00 | 0.03 | 0.00 | 85 | 1015.7 |
| 20260906140954 | 78 | 183 | 5.0 | 9.0 | 0.00 | 0.03 | 0.00 | 85 | 1015.7 |
| 20260906140453 | 78 | 170 | 5.0 | 9.0 | 0.00 | 0.03 | 0.00 | 85 | 1015.6 |
| 20260906135954 | 77 | 154 | 5.0 | 7.0 | 0.00 | 0.03 | 0.00 | 85 | 1015.5 |
| 20260906135735 | 78 | 169 | 5.0 | 9.0 | 0.00 | 0.03 | 0.00 | 85 | 1015.5 |
| 20260906135454 | 77 | 143 | 7.0 | 9.0 | 0.00 | 0.03 | 0.00 | 85 | 1015.5 |
| 20260906134953 | 78 | 185 | 6.0 | 12.0 | 0.00 | 0.03 | 0.00 | 86 | 1015.5 |
| 20260906134735 | 78 | 167 | 6.0 | 9.0 | 0.00 | 0.03 | 0.00 | 86 | 1015.6 |
| 20260906134453 | 78 | 156 | 8.0 | 12.0 | 0.00 | 0.04 | 0.00 | 86 | 1015.6 |
| 20260906133955 | 77 | 158 | 9.0 | 12.0 | 0.00 | 0.04 | 0.00 | 86 | 1015.8 |
| 20260906133454 | 77 | 175 | 8.0 | 12.0 | 0.00 | 0.04 | 0.00 | 87 | 1015.9 |
| 20260906132953 | 77 | 156 | 9.0 | 13.0 | 0.00 | 0.04 | 0.00 | 87 | 1015.8 |
| 20260906132735 | 77 | 162 | 9.0 | 14.0 | 0.00 | 0.04 | 0.00 | 88 | 1015.8 |
| 20260906132453 | 77 | 147 | 9.0 | 10.0 | 0.00 | 0.04 | 0.00 | 88 | 1015.7 |
| 20260906131954 | 77 | 154 | 8.0 | 9.0 | 0.00 | 0.04 | 0.00 | 88 | 1015.7 |
| 20260906131454 | 76 | 145 | 6.0 | 13.0 | 0.00 | 0.04 | 0.00 | 89 | 1015.7 |
| 20260906130954 | 76 | 134 | 6.0 | 12.0 | 0.00 | 0.04 | 0.00 | 89 | 1015.7 |
| 20260906130455 | 76 | 142 | 5.0 | 12.0 | 0.00 | 0.04 | 0.00 | 89 | 1015.7 |
| 20260906125954 | 76 | 182 | 3.0 | 5.0 | 0.00 | 0.04 | 0.00 | 90 | 1015.7 |
| 20260906125453 | 76 | 115 | 3.0 | 6.0 | 0.00 | 0.04 | 0.00 | 90 | 1015.6 |
| 20260906124954 | 76 | 153 | 5.0 | 7.0 | 0.00 | 0.04 | 0.00 | 90 | 1015.6 |
| 20260906124454 | 76 | 125 | 5.0 | 8.0 | 0.00 | 0.04 | 0.00 | 90 | 1015.6 |
| 20260906123953 | 76 | 127 | 7.0 | 8.0 | 0.00 | 0.04 | 0.00 | 90 | 1015.5 |
| 20260906123455 | 76 | 134 | 6.0 | 7.0 | 0.00 | 0.04 | 0.00 | 90 | 1015.5 |
| 20260906122954 | 76 | 138 | 3.0 | 7.0 | 0.00 | 0.04 | 0.00 | 90 | 1015.6 |
| 20260906122454 | 76 | 120 | 3.0 | 8.0 | 0.00 | 0.04 | 0.00 | 90 | 1015.6 |
| 20260906121955 | 76 | 162 | 3.0 | 5.0 | 0.00 | 0.04 | 0.00 | 90 | 1015.6 |
| 20260906121736 | 76 | 136 | 2.0 | 3.0 | 0.00 | 0.04 | 0.00 | 90 | 1015.6 |
| 20260906121454 | 76 | 172 | 6.0 | 6.0 | 0.00 | 0.04 | 0.00 | 90 | 1015.6 |
| 20260906120954 | 76 | 170 | 3.0 | 2.0 | 0.00 | 0.04 | 0.00 | 90 | 1015.5 |
| 20260906120738 | 76 | 137 | 2.0 | 7.0 | 0.00 | 0.04 | 0.00 | 90 | 1015.5 |
| 20260906120455 | 76 | 121 | 2.0 | 6.0 | 0.00 | 0.04 | 0.00 | 89 | 1015.5 |
| 20260906115954 | 76 | 106 | 3.0 | 5.0 | 0.00 | 0.05 | 0.00 | 89 | 1015.4 |
| 20260906115735 | 76 | 133 | 6.0 | 7.0 | 0.00 | 0.05 | 0.00 | 89 | 1015.3 |
| 20260906115453 | 76 | 93 | 3.0 | 5.0 | 0.00 | 0.05 | 0.00 | 89 | 1015.3 |
| 20260906114954 | 77 | 110 | 3.0 | 7.0 | 0.00 | 0.05 | 0.00 | 89 | 1015.3 |
| 20260906114735 | 76 | 90 | 5.0 | 7.0 | 0.00 | 0.05 | 0.00 | 89 | 1015.3 |
| 20260906114454 | 76 | 118 | 1.0 | 2.0 | 0.00 | 0.05 | 0.00 | 89 | 1015.2 |
| 20260906113953 | 77 | 134 | 3.0 | 5.0 | 0.00 | 0.05 | 0.00 | 89 | 1015.3 |
| 20260906113735 | 76 | 144 | 2.0 | 3.0 | 0.00 | 0.05 | 0.00 | 89 | 1015.2 |
| 20260906113454 | 77 | 134 | 5.0 | 8.0 | 0.00 | 0.05 | 0.00 | 89 | 1015.2 |
| 20260906112954 | 77 | 131 | 5.0 | 7.0 | 0.00 | 0.05 | 0.00 | 89 | 1015.1 |
| 20260906112455 | 76 | 97 | 3.0 | 5.0 | 0.00 | 0.08 | 0.00 | 89 | 1015.0 |
| 20260906111954 | 77 | 138 | 6.0 | 7.0 | 0.00 | 0.11 | 0.00 | 88 | 1015.0 |
| 20260906111738 | 77 | 150 | 3.0 | 5.0 | 0.00 | 0.11 | 0.00 | 88 | 1014.9 |
| 20260906111454 | 77 | 147 | 5.0 | 7.0 | 0.00 | 0.11 | 0.00 | 88 | 1014.9 |
| 20260906110954 | 77 | 145 | 5.0 | 7.0 | 0.00 | 0.11 | 0.00 | 88 | 1014.8 |
| 20260906110743 | 77 | 151 | 5.0 | 6.0 | 0.00 | 0.11 | 0.00 | 88 | 1014.9 |
| 20260906110455 | 77 | 149 | 5.0 | 7.0 | 0.00 | 0.11 | 0.00 | 88 | 1014.8 |
| 20260906105954 | 77 | 121 | 3.0 | 6.0 | 0.00 | 0.11 | 0.00 | 88 | 1014.8 |
| 20260906105739 | 78 | 133 | 2.0 | 7.0 | 0.00 | 0.11 | 0.00 | 88 | 1014.9 |
| 20260906105454 | 78 | 134 | 3.0 | 6.0 | 0.00 | 0.11 | 0.00 | 87 | 1014.8 |
| 20260906104955 | 77 | 123 | 3.0 | 8.0 | 0.00 | 0.11 | 0.00 | 87 | 1014.8 |
| 20260906104736 | 78 | 161 | 3.0 | 6.0 | 0.00 | 0.11 | 0.00 | 87 | 1014.9 |
| 20260906104453 | 78 | 157 | 5.0 | 6.0 | 0.00 | 0.11 | 0.00 | 87 | 1014.8 |
| 20260906103955 | 78 | 174 | 3.0 | 5.0 | 0.00 | 0.11 | 0.00 | 87 | 1014.8 |
| 20260906103738 | 77 | 146 | 5.0 | 8.0 | 0.00 | 0.11 | 0.00 | 87 | 1014.8 |
| 20260906103454 | 78 | 188 | 5.0 | 8.0 | 0.00 | 0.11 | 0.00 | 87 | 1014.8 |
| 20260906102955 | 78 | 153 | 5.0 | 8.0 | 0.00 | 0.11 | 0.00 | 87 | 1014.7 |
| 20260906102738 | 78 | 164 | 5.0 | 8.0 | 0.00 | 0.11 | 0.00 | 87 | 1014.7 |
| 20260906102454 | 78 | 149 | 8.0 | 10.0 | 0.00 | 0.11 | 0.00 | 87 | 1014.7 |
| 20260906101954 | 78 | 181 | 6.0 | 8.0 | 0.00 | 0.11 | 0.00 | 87 | 1014.8 |
| 20260906101736 | 78 | 152 | 5.0 | 7.0 | 0.00 | 0.11 | 0.00 | 87 | 1014.7 |
| 20260906101454 | 78 | 183 | 2.0 | 7.0 | 0.00 | 0.11 | 0.00 | 87 | 1014.8 |
| 20260906100954 | 78 | 186 | 5.0 | 7.0 | 0.00 | 0.11 | 0.00 | 86 | 1014.8 |
| 20260906100739 | 78 | 176 | 5.0 | 5.0 | 0.00 | 0.11 | 0.00 | 86 | 1014.7 |
| 20260906100455 | 78 | 136 | 5.0 | 7.0 | 0.00 | 0.11 | 0.00 | 86 | 1014.7 |
| 20260906095954 | 78 | 147 | 5.0 | 8.0 | 0.00 | 0.11 | 0.00 | 86 | 1014.7 |
| 20260906095454 | 77 | 168 | 6.0 | 8.0 | 0.00 | 0.11 | 0.00 | 87 | 1014.5 |
| 20260906094955 | 78 | 143 | 5.0 | 9.0 | 0.00 | 0.11 | 0.00 | 87 | 1014.5 |
| 20260906094737 | 78 | 156 | 2.0 | 6.0 | 0.00 | 0.11 | 0.00 | 87 | 1014.5 |
| 20260906094454 | 78 | 164 | 3.0 | 7.0 | 0.00 | 0.11 | 0.00 | 87 | 1014.5 |
| 20260906093954 | 78 | 177 | 3.0 | 6.0 | 0.00 | 0.11 | 0.00 | 87 | 1014.5 |
| 20260906093455 | 78 | 184 | 5.0 | 6.0 | 0.00 | 0.11 | 0.00 | 87 | 1014.7 |
| 20260906092955 | 78 | 138 | 5.0 | 7.0 | 0.00 | 0.11 | 0.00 | 87 | 1014.7 |
| 20260906092738 | 78 | 149 | 5.0 | 7.0 | 0.00 | 0.11 | 0.00 | 87 | 1014.7 |
| 20260906092455 | 77 | 157 | 3.0 | 5.0 | 0.00 | 0.11 | 0.00 | 86 | 1014.7 |
| 20260906091955 | 78 | 158 | 1.0 | 6.0 | 0.00 | 0.11 | 0.00 | 86 | 1014.8 |
| 20260906091454 | 78 | 136 | 5.0 | 7.0 | 0.00 | 0.11 | 0.00 | 86 | 1014.9 |
| 20260906090953 | 78 | 146 | 5.0 | 7.0 | 0.00 | 0.11 | 0.00 | 86 | 1014.9 |
| 20260906090737 | 78 | 173 | 3.0 | 7.0 | 0.00 | 0.11 | 0.00 | 86 | 1014.9 |
| 20260906090454 | 78 | 171 | 5.0 | 7.0 | 0.00 | 0.11 | 0.00 | 86 | 1014.9 |
| 20260906085953 | 78 | 196 | 3.0 | 6.0 | 0.00 | 0.11 | 0.00 | 86 | 1015.0 |
| 20260906085455 | 78 | 157 | 6.0 | 7.0 | 0.00 | 0.11 | 0.00 | 86 | 1015.1 |
| 20260906084954 | 78 | 179 | 5.0 | 5.0 | 0.00 | 0.11 | 0.00 | 86 | 1015.1 |
| 20260906084736 | 78 | 166 | 3.0 | 7.0 | 0.00 | 0.11 | 0.00 | 86 | 1015.2 |
| 20260906084454 | 78 | 165 | 5.0 | 7.0 | 0.00 | 0.11 | 0.00 | 86 | 1015.2 |
| 20260906083954 | 78 | 151 | 3.0 | 8.0 | 0.00 | 0.11 | 0.00 | 86 | 1015.2 |
| 20260906083740 | 78 | 194 | 3.0 | 7.0 | 0.00 | 0.11 | 0.00 | 86 | 1015.2 |
| 20260906083455 | 78 | 151 | 2.0 | 5.0 | 0.00 | 0.11 | 0.00 | 86 | 1015.1 |
| 20260906082954 | 78 | 155 | 3.0 | 3.0 | 0.00 | 0.11 | 0.00 | 86 | 1015.1 |
| 20260906082735 | 78 | 179 | 3.0 | 7.0 | 0.00 | 0.11 | 0.00 | 86 | 1015.1 |
| 20260906082455 | 78 | 187 | 5.0 | 7.0 | 0.00 | 0.11 | 0.00 | 86 | 1015.0 |
| 20260906081954 | 78 | 160 | 6.0 | 8.0 | 0.00 | 0.11 | 0.00 | 86 | 1014.9 |
| 20260906081454 | 78 | 149 | 3.0 | 6.0 | 0.00 | 0.11 | 0.00 | 86 | 1014.9 |
| 20260906080955 | 78 | 151 | 5.0 | 7.0 | 0.00 | 0.11 | 0.00 | 86 | 1014.8 |
| 20260906080454 | 78 | 171 | 6.0 | 8.0 | 0.00 | 0.11 | 0.00 | 86 | 1014.8 |
| 20260906075954 | 78 | 197 | 2.0 | 5.0 | 0.00 | 0.11 | 0.00 | 86 | 1014.8 |
| 20260906075737 | 78 | 152 | 6.0 | 9.0 | 0.00 | 0.11 | 0.00 | 86 | 1014.6 |
| 20260906075453 | 78 | 152 | 3.0 | 2.0 | 0.00 | 0.11 | 0.00 | 86 | 1014.5 |
| 20260906074954 | 78 | 155 | 3.0 | 5.0 | 0.00 | 0.11 | 0.00 | 86 | 1014.5 |
| 20260906074455 | 78 | 137 | 6.0 | 7.0 | 0.00 | 0.11 | 0.00 | 86 | 1014.5 |
| 20260906073955 | 78 | 150 | 5.0 | 7.0 | 0.00 | 0.11 | 0.00 | 86 | 1014.4 |
| 20260906073454 | 78 | 120 | 6.0 | 8.0 | 0.00 | 0.11 | 0.00 | 86 | 1014.5 |
| 20260906072954 | 78 | 125 | 3.0 | 6.0 | 0.00 | 0.11 | 0.00 | 86 | 1014.8 |
| 20260906072455 | 78 | 142 | 3.0 | 5.0 | 0.00 | 0.11 | 0.00 | 86 | 1014.9 |
| 20260906071954 | 78 | 195 | 2.0 | 2.0 | 0.00 | 0.11 | 0.00 | 86 | 1014.9 |
| 20260906071455 | 78 | 136 | 2.0 | 3.0 | 0.00 | 0.11 | 0.00 | 86 | 1015.0 |
| 20260906070954 | 78 | 127 | 2.0 | 2.0 | 0.00 | 0.11 | 0.00 | 86 | 1015.0 |
| 20260906070735 | 79 | 144 | 5.0 | 6.0 | 0.00 | 0.11 | 0.00 | 86 | 1015.0 |
| 20260906070455 | 78 | 120 | 2.0 | 3.0 | 0.00 | 0.11 | 0.00 | 86 | 1014.9 |
| 20260906065955 | 79 | 114 | 5.0 | 6.0 | 0.00 | 0.11 | 0.00 | 86 | 1014.9 |
| 20260906065740 | 78 | 111 | 6.0 | 6.0 | 0.00 | 0.11 | 0.00 | 86 | 1014.8 |
| 20260906065454 | 79 | 134 | 3.0 | 5.0 | 0.00 | 0.11 | 0.00 | 86 | 1014.9 |
| 20260906064955 | 78 | 135 | 6.0 | 6.0 | 0.00 | 0.11 | 0.00 | 86 | 1014.9 |
| 20260906064454 | 79 | 107 | 6.0 | 6.0 | 0.00 | 0.11 | 0.00 | 86 | 1015.0 |
| 20260906063954 | 79 | 114 | 3.0 | 6.0 | 0.00 | 0.11 | 0.00 | 85 | 1015.1 |
| 20260906063455 | 79 | 100 | 6.0 | 9.0 | 0.00 | 0.11 | 0.00 | 85 | 1015.0 |
| 20260906062955 | 79 | 116 | 3.0 | 6.0 | 0.00 | 0.11 | 0.00 | 85 | 1015.0 |
| 20260906062454 | 79 | 99 | 3.0 | 3.0 | 0.00 | 0.11 | 0.00 | 85 | 1015.0 |
| 20260906061955 | 79 | 106 | 5.0 | 7.0 | 0.00 | 0.11 | 0.00 | 85 | 1015.0 |
| 20260906061455 | 79 | 108 | 5.0 | 7.0 | 0.00 | 0.11 | 0.00 | 85 | 1015.1 |
| 20260906060955 | 79 | 123 | 5.0 | 6.0 | 0.00 | 0.11 | 0.00 | 85 | 1015.1 |
| 20260906060454 | 79 | 109 | 3.0 | 5.0 | 0.00 | 0.11 | 0.00 | 85 | 1015.1 |
| 20260906055955 | 79 | 112 | 5.0 | 6.0 | 0.00 | 0.11 | 0.00 | 85 | 1015.2 |
| 20260906055455 | 79 | 126 | 5.0 | 5.0 | 0.00 | 0.11 | 0.00 | 85 | 1015.2 |
| 20260906054954 | 79 | 119 | 3.0 | 5.0 | 0.00 | 0.11 | 0.00 | 85 | 1015.1 |
| 20260906054455 | 79 | 125 | 5.0 | 7.0 | 0.00 | 0.11 | 0.00 | 85 | 1015.1 |
| 20260906053955 | 79 | 120 | 2.0 | 5.0 | 0.00 | 0.11 | 0.00 | 85 | 1015.0 |
| 20260906053740 | 79 | 161 | 2.0 | 2.0 | 0.00 | 0.11 | 0.00 | 85 | 1015.0 |
| 20260906053454 | 79 | 142 | 2.0 | 2.0 | 0.00 | 0.11 | 0.00 | 85 | 1015.0 |
| 20260906052954 | 79 | 112 | 5.0 | 6.0 | 0.00 | 0.11 | 0.00 | 85 | 1014.9 |
| 20260906052455 | 79 | 113 | 5.0 | 6.0 | 0.00 | 0.11 | 0.00 | 85 | 1014.9 |
| 20260906051955 | 79 | 126 | 5.0 | 7.0 | 0.00 | 0.11 | 0.00 | 85 | 1014.9 |
| 20260906051454 | 79 | 116 | 5.0 | 7.0 | 0.00 | 0.11 | 0.00 | 86 | 1014.8 |
| 20260906050954 | 79 | 118 | 2.0 | 3.0 | 0.00 | 0.11 | 0.00 | 85 | 1014.9 |
| 20260906050455 | 79 | 102 | 2.0 | 3.0 | 0.00 | 0.11 | 0.00 | 86 | 1014.8 |
| 20260906045955 | 79 | 127 | 3.0 | 5.0 | 0.00 | 0.11 | 0.11 | 85 | 1014.8 |
| 20260906045455 | 79 | 213 | 0.0 | 0.0 | 0.00 | 0.11 | 0.11 | 84 | 1015.0 |
| 20260906044955 | 79 | 106 | 2.0 | 3.0 | 0.00 | 0.11 | 0.11 | 85 | 1015.0 |
| 20260906044455 | 79 | 92 | 5.0 | 6.0 | 0.00 | 0.11 | 0.11 | 85 | 1015.0 |
| 20260906043955 | 79 | 94 | 2.0 | 3.0 | 0.00 | 0.11 | 0.11 | 85 | 1015.0 |
| 20260906043454 | 79 | 118 | 3.0 | 3.0 | 0.00 | 0.11 | 0.11 | 85 | 1015.0 |
| 20260906042954 | 79 | 117 | 2.0 | 6.0 | 0.00 | 0.11 | 0.11 | 86 | 1015.0 |
| 20260906042454 | 79 | 117 | 3.0 | 5.0 | 0.00 | 0.11 | 0.11 | 86 | 1015.0 |
| 20260906041955 | 79 | 140 | 1.0 | 5.0 | 0.00 | 0.11 | 0.11 | 85 | 1015.0 |
| 20260906041455 | 79 | 96 | 1.0 | 2.0 | 0.00 | 0.11 | 0.11 | 85 | 1015.0 |
| 20260906040954 | 79 | 107 | 0.0 | 0.0 | 0.00 | 0.11 | 0.11 | 85 | 1015.1 |
| 20260906040454 | 79 | 87 | 0.0 | 0.0 | 0.00 | 0.11 | 0.11 | 86 | 1015.3 |
| 20260906035954 | 78 | 59 | 1.0 | 2.0 | 0.00 | 0.11 | 0.11 | 86 | 1015.3 |
| 20260906035454 | 78 | 7 | 2.0 | 3.0 | 0.00 | 0.11 | 0.11 | 85 | 1015.4 |
| 20260906034955 | 79 | 330 | 0.0 | 1.0 | 0.00 | 0.11 | 0.11 | 84 | 1015.3 |
| 20260906034454 | 79 | 326 | 0.0 | 0.0 | 0.00 | 0.11 | 0.11 | 84 | 1015.3 |
| 20260906033955 | 79 | 330 | 0.0 | 1.0 | 0.00 | 0.11 | 0.11 | 84 | 1015.3 |
| 20260906033456 | 79 | 23 | 1.0 | 1.0 | 0.00 | 0.11 | 0.11 | 83 | 1015.3 |
| 20260906032955 | 80 | 12 | 0.0 | 1.0 | 0.00 | 0.11 | 0.11 | 82 | 1015.2 |
| 20260906032455 | 80 | 41 | 0.0 | 0.0 | 0.00 | 0.11 | 0.11 | 82 | 1015.1 |
| 20260906031956 | 79 | 103 | 0.0 | 0.0 | 0.00 | 0.11 | 0.11 | 82 | 1015.1 |
| 20260906031454 | 80 | 100 | 5.0 | 6.0 | 0.00 | 0.11 | 0.11 | 82 | 1015.0 |
| 20260906030954 | 80 | 106 | 5.0 | 8.0 | 0.00 | 0.11 | 0.11 | 82 | 1015.0 |
| 20260906030455 | 80 | 88 | 3.0 | 7.0 | 0.00 | 0.11 | 0.11 | 82 | 1014.8 |
| 20260906025955 | 80 | 122 | 3.0 | 6.0 | 0.00 | 0.11 | 0.11 | 82 | 1014.8 |
| 20260906025455 | 80 | 120 | 6.0 | 6.0 | 0.00 | 0.11 | 0.11 | 81 | 1014.7 |
| 20260906024956 | 80 | 104 | 6.0 | 7.0 | 0.00 | 0.11 | 0.11 | 80 | 1014.6 |
| 20260906024455 | 80 | 105 | 7.0 | 7.0 | 0.00 | 0.11 | 0.11 | 80 | 1014.7 |
| 20260906023955 | 80 | 102 | 6.0 | 9.0 | 0.00 | 0.11 | 0.11 | 79 | 1014.7 |
| 20260906023454 | 81 | 96 | 7.0 | 9.0 | 0.00 | 0.11 | 0.11 | 79 | 1014.7 |
| 20260906022954 | 81 | 95 | 6.0 | 8.0 | 0.00 | 0.11 | 0.11 | 78 | 1014.7 |
| 20260906022454 | 81 | 86 | 6.0 | 8.0 | 0.00 | 0.11 | 0.11 | 77 | 1014.7 |
| 20260906021955 | 82 | 103 | 5.0 | 7.0 | 0.00 | 0.11 | 0.11 | 77 | 1014.6 |
| 20260906021455 | 81 | 102 | 7.0 | 8.0 | 0.00 | 0.11 | 0.11 | 77 | 1014.4 |
| 20260906020954 | 82 | 110 | 7.0 | 10.0 | 0.00 | 0.11 | 0.11 | 76 | 1014.4 |
| 20260906020456 | 81 | 120 | 6.0 | 7.0 | 0.00 | 0.11 | 0.11 | 76 | 1014.1 |
| 20260906015954 | 82 | 109 | 6.0 | 8.0 | 0.00 | 0.11 | 0.11 | 75 | 1014.2 |
| 20260906015454 | 82 | 106 | 6.0 | 9.0 | 0.00 | 0.11 | 0.11 | 75 | 1014.2 |
| 20260906014955 | 82 | 113 | 6.0 | 7.0 | 0.00 | 0.11 | 0.11 | 74 | 1014.1 |
| 20260906014456 | 82 | 105 | 7.0 | 9.0 | 0.00 | 0.11 | 0.11 | 74 | 1014.0 |
| 20260906013955 | 82 | 107 | 5.0 | 6.0 | 0.00 | 0.11 | 0.11 | 74 | 1014.0 |
| 20260906013455 | 82 | 117 | 6.0 | 7.0 | 0.00 | 0.11 | 0.11 | 73 | 1013.9 |
| 20260906012954 | 82 | 105 | 6.0 | 10.0 | 0.00 | 0.11 | 0.11 | 73 | 1013.9 |
| 20260906012454 | 82 | 104 | 6.0 | 9.0 | 0.00 | 0.11 | 0.11 | 72 | 1013.8 |
| 20260906011954 | 82 | 115 | 6.0 | 8.0 | 0.00 | 0.11 | 0.11 | 72 | 1013.7 |
| 20260906011455 | 82 | 115 | 6.0 | 7.0 | 0.00 | 0.11 | 0.11 | 72 | 1013.7 |
| 20260906010955 | 82 | 120 | 7.0 | 8.0 | 0.00 | 0.11 | 0.11 | 71 | 1013.8 |
| 20260906010455 | 82 | 117 | 6.0 | 9.0 | 0.00 | 0.11 | 0.11 | 71 | 1013.8 |
| 20260906005955 | 82 | 124 | 7.0 | 8.0 | 0.00 | 0.11 | 0.11 | 70 | 1013.7 |
| 20260906005455 | 83 | 134 | 6.0 | 7.0 | 0.00 | 0.11 | 0.11 | 70 | 1013.7 |
| 20260906004954 | 83 | 138 | 7.0 | 7.0 | 0.00 | 0.11 | 0.11 | 68 | 1013.8 |
| 20260906004455 | 83 | 127 | 7.0 | 9.0 | 0.00 | 0.11 | 0.11 | 68 | 1013.8 |
| 20260906003955 | 83 | 111 | 7.0 | 9.0 | 0.00 | 0.11 | 0.11 | 67 | 1013.8 |
| 20260906003453 | 84 | 120 | 6.0 | 8.0 | 0.00 | 0.11 | 0.11 | 66 | 1013.7 |
| 20260906002952 | 84 | 115 | 5.0 | 8.0 | 0.00 | 0.11 | 0.11 | 65 | 1013.7 |
| 20260906002454 | 85 | 106 | 3.0 | 6.0 | 0.00 | 0.11 | 0.11 | 64 | 1013.7 |
| 20260906001953 | 85 | 89 | 5.0 | 5.0 | 0.00 | 0.11 | 0.11 | 63 | 1013.6 |
| 20260906001452 | 85 | 107 | 8.0 | 9.0 | 0.00 | 0.11 | 0.11 | 62 | 1013.5 |
| 20260906000954 | 86 | 105 | 5.0 | 8.0 | 0.00 | 0.11 | 0.11 | 61 | 1013.5 |
| 20260906000455 | 86 | 112 | 8.0 | 9.0 | 0.00 | 0.11 | 0.11 | 60 | 1013.5 |
| 20260905235953 | 86 | 114 | 7.0 | 8.0 | 0.00 | 0.11 | 0.11 | 60 | 1013.5 |
| 20260905235453 | 86 | 104 | 10.0 | 13.0 | 0.00 | 0.11 | 0.11 | 59 | 1013.5 |
| 20260905234954 | 87 | 121 | 8.0 | 12.0 | 0.00 | 0.11 | 0.11 | 59 | 1013.6 |
| 20260905234453 | 87 | 108 | 6.0 | 8.0 | 0.00 | 0.11 | 0.11 | 58 | 1013.5 |
| 20260905233954 | 87 | 109 | 8.0 | 12.0 | 0.00 | 0.11 | 0.11 | 58 | 1013.5 |
| 20260905233453 | 87 | 123 | 7.0 | 8.0 | 0.00 | 0.11 | 0.11 | 57 | 1013.6 |
| 20260905232953 | 87 | 128 | 8.0 | 10.0 | 0.00 | 0.11 | 0.11 | 56 | 1013.5 |
| 20260905232453 | 88 | 132 | 8.0 | 10.0 | 0.00 | 0.11 | 0.11 | 56 | 1013.5 |
| 20260905231954 | 87 | 152 | 10.0 | 12.0 | 0.00 | 0.11 | 0.11 | 55 | 1013.3 |
| 20260905231454 | 87 | 133 | 12.0 | 13.0 | 0.00 | 0.11 | 0.11 | 54 | 1013.3 |
| 20260905230953 | 88 | 121 | 10.0 | 14.0 | 0.00 | 0.11 | 0.11 | 54 | 1013.2 |
| 20260905230452 | 88 | 145 | 9.0 | 14.0 | 0.00 | 0.11 | 0.11 | 53 | 1013.2 |
| 20260905225952 | 88 | 174 | 6.0 | 9.0 | 0.00 | 0.11 | 0.11 | 54 | 1013.2 |
| 20260905225454 | 88 | 157 | 7.0 | 15.0 | 0.00 | 0.11 | 0.11 | 53 | 1013.2 |
| 20260905224953 | 88 | 125 | 14.0 | 16.0 | 0.00 | 0.11 | 0.11 | 52 | 1013.1 |
| 20260905224453 | 88 | 142 | 10.0 | 15.0 | 0.00 | 0.11 | 0.11 | 51 | 1013.1 |
| 20260905223952 | 89 | 137 | 9.0 | 14.0 | 0.00 | 0.11 | 0.11 | 51 | 1013.1 |
| 20260905223454 | 89 | 129 | 8.0 | 13.0 | 0.00 | 0.11 | 0.11 | 51 | 1013.1 |
| 20260905222953 | 89 | 136 | 9.0 | 9.0 | 0.00 | 0.11 | 0.11 | 50 | 1012.9 |
| 20260905222453 | 89 | 133 | 9.0 | 10.0 | 0.00 | 0.11 | 0.11 | 50 | 1013.0 |
| 20260905221954 | 89 | 160 | 10.0 | 13.0 | 0.00 | 0.11 | 0.11 | 49 | 1012.9 |
| 20260905221454 | 89 | 132 | 10.0 | 14.0 | 0.00 | 0.11 | 0.11 | 48 | 1012.8 |
| 20260905220954 | 89 | 136 | 12.0 | 18.0 | 0.00 | 0.11 | 0.11 | 48 | 1012.8 |
| 20260905220454 | 89 | 114 | 9.0 | 16.0 | 0.00 | 0.11 | 0.11 | 48 | 1012.7 |
| 20260905215954 | 89 | 150 | 10.0 | 13.0 | 0.00 | 0.11 | 0.11 | 49 | 1012.7 |
| 20260905215453 | 89 | 132 | 14.0 | 21.0 | 0.00 | 0.11 | 0.11 | 48 | 1012.6 |
| 20260905214954 | 89 | 156 | 10.0 | 13.0 | 0.00 | 0.11 | 0.11 | 48 | 1012.6 |
| 20260905214454 | 90 | 151 | 14.0 | 18.0 | 0.00 | 0.11 | 0.11 | 48 | 1012.7 |
| 20260905213954 | 90 | 134 | 8.0 | 14.0 | 0.00 | 0.11 | 0.11 | 49 | 1012.6 |
| 20260905213453 | 89 | 140 | 13.0 | 20.0 | 0.00 | 0.11 | 0.11 | 49 | 1012.6 |
| 20260905212953 | 89 | 151 | 8.0 | 16.0 | 0.00 | 0.11 | 0.11 | 49 | 1012.7 |
| 20260905212452 | 89 | 144 | 10.0 | 20.0 | 0.00 | 0.11 | 0.11 | 48 | 1012.8 |
| 20260905211953 | 89 | 154 | 12.0 | 18.0 | 0.00 | 0.11 | 0.11 | 47 | 1012.9 |
| 20260905211454 | 90 | 178 | 8.0 | 15.0 | 0.00 | 0.11 | 0.11 | 47 | 1013.0 |
| 20260905210954 | 89 | 149 | 14.0 | 18.0 | 0.00 | 0.11 | 0.11 | 47 | 1012.9 |
| 20260905210453 | 89 | 148 | 12.0 | 20.0 | 0.00 | 0.11 | 0.11 | 47 | 1012.9 |
| 20260905205953 | 89 | 160 | 13.0 | 20.0 | 0.00 | 0.11 | 0.11 | 47 | 1012.9 |
| 20260905205454 | 89 | 158 | 14.0 | 22.0 | 0.00 | 0.11 | 0.11 | 46 | 1013.0 |
| 20260905204953 | 89 | 133 | 15.0 | 24.0 | 0.00 | 0.11 | 0.11 | 46 | 1012.9 |
| 20260905204455 | 89 | 150 | 14.0 | 16.0 | 0.00 | 0.11 | 0.11 | 48 | 1013.0 |
| 20260905203954 | 89 | 147 | 12.0 | 13.0 | 0.00 | 0.11 | 0.11 | 48 | 1012.9 |
| 20260905203453 | 88 | 146 | 8.0 | 14.0 | 0.00 | 0.11 | 0.11 | 50 | 1012.9 |
| 20260905202953 | 88 | 177 | 8.0 | 17.0 | 0.00 | 0.11 | 0.11 | 50 | 1012.9 |
| 20260905202453 | 88 | 155 | 7.0 | 15.0 | 0.00 | 0.11 | 0.11 | 50 | 1012.9 |
| 20260905201954 | 87 | 158 | 12.0 | 17.0 | 0.00 | 0.11 | 0.11 | 49 | 1012.9 |
| 20260905201454 | 88 | 180 | 10.0 | 16.0 | 0.00 | 0.11 | 0.11 | 47 | 1012.8 |
| 20260905200953 | 88 | 170 | 8.0 | 20.0 | 0.00 | 0.11 | 0.11 | 47 | 1012.9 |
| 20260905200454 | 88 | 158 | 10.0 | 17.0 | 0.00 | 0.11 | 0.11 | 44 | 1012.8 |
| 20260905195954 | 87 | 159 | 6.0 | 9.0 | 0.00 | 0.11 | 0.11 | 50 | 1013.0 |
| 20260905195454 | 87 | 114 | 3.0 | 7.0 | 0.00 | 0.11 | 0.11 | 52 | 1013.1 |
| 20260905194953 | 86 | 123 | 6.0 | 10.0 | 0.00 | 0.11 | 0.11 | 52 | 1013.1 |
| 20260905194454 | 86 | 117 | 5.0 | 8.0 | 0.00 | 0.11 | 0.11 | 51 | 1013.1 |
| 20260905193954 | 85 | 138 | 6.0 | 7.0 | 0.00 | 0.11 | 0.11 | 52 | 1013.0 |
| 20260905193453 | 84 | 146 | 9.0 | 13.0 | 0.00 | 0.11 | 0.11 | 53 | 1012.9 |
| 20260905192953 | 84 | 138 | 8.0 | 9.0 | 0.00 | 0.11 | 0.11 | 53 | 1012.7 |
| 20260905192453 | 83 | 134 | 7.0 | 12.0 | 0.00 | 0.11 | 0.11 | 54 | 1012.5 |
| 20260905191954 | 82 | 179 | 5.0 | 18.0 | 0.00 | 0.11 | 0.11 | 55 | 1012.4 |
| 20260905191735 | 82 | 128 | 8.0 | 14.0 | 0.00 | 0.11 | 0.11 | 55 | 1012.3 |
| 20260905191453 | 82 | 148 | 9.0 | 14.0 | 0.00 | 0.11 | 0.11 | 54 | 1012.2 |
| 20260905190953 | 81 | 151 | 12.0 | 15.0 | 0.00 | 0.11 | 0.11 | 56 | 1012.0 |
| 20260905190740 | 81 | 131 | 13.0 | 17.0 | 0.00 | 0.11 | 0.11 | 55 | 1012.0 |
| 20260905190454 | 80 | 136 | 10.0 | 15.0 | 0.00 | 0.11 | 0.11 | 56 | 1012.0 |
| 20260905185954 | 80 | 176 | 9.0 | 13.0 | 0.00 | 0.11 | 0.11 | 56 | 1012.1 |
| 20260905185735 | 80 | 130 | 9.0 | 13.0 | 0.00 | 0.11 | 0.11 | 56 | 1012.0 |